Flag for Switzerland Weather past 2 weeks in Meyrin, Geneva, Switzerland

Now
61 °F

Passing clouds.


Feels Like: 61 °F
Forecast: 45 / 79 °F
Wind: 13 mph from Northeast

Location: Geneva Cointrin Airport

Current Time: Sep 3, 2014 at 2:45:09 AM

Latest Report: Sep 3, 2014 at 1:50 AM


Visibility: N/A

Pressure: 30.04 "Hg

Humidity: 68%

Dew point: 50 °F

Location of MeyrinLocation

Historic Weather in Meyrin — Graph

°F

Meyrin temperature yesterday

Maximum temperature yesterday: 70 °F (at 4:20 PM)
Minimum temperature yesterday: 52 °F (at 6:20 AM)
Average temperature yesterday: 62 °F

Past Weeks' High & Low Weather Summary

 TemperatureHumidityPressure
High79 °F (Aug 28, 3:50 PM)100% (Aug 19, 6:50 AM)30.18 "Hg (Aug 19, 6:50 AM)
Low48 °F (Aug 25, 4:50 AM)39% (Aug 22, 3:20 PM)29.86 "Hg (Aug 26, 2:20 PM)
Average63 °F70%30.04 "Hg
* Reported Aug 19 1:20 AM — Sep 3 1:50 AM, Meyrin, Weather by CustomWeather, © 2014

Note: Actual official high and low records may vary slightly from our data, if they occured in-between our weather recording intervals... More about our weather records

Advertising

Meyrin weather history for previous 24 hours

 ConditionsComfort  
Time TempWeatherWind HumidityBarometerVisibility
1:50 AM
Sep 3
61 °FPassing clouds.13 mph68%30.04 "HgN/A
1:20 AM61 °FPassing clouds.14 mph68%30.04 "HgN/A
12:50 AM61 °FClear.15 mph68%30.04 "Hg10 mi
12:20 AM61 °FPassing clouds.13 mph63%30.04 "HgN/A
11:50 PM
Sep 2
61 °FPassing clouds.15 mph63%30.04 "HgN/A
11:20 PM61 °FPassing clouds.15 mph59%30.04 "HgN/A
10:50 PM63 °FPassing clouds.14 mph56%30.07 "HgN/A
10:20 PM63 °FPassing clouds.15 mph56%30.07 "HgN/A
9:50 PM63 °FPassing clouds.14 mph56%30.07 "HgN/A
9:20 PM63 °FPassing clouds.14 mph56%30.04 "HgN/A
8:50 PM63 °FPassing clouds.12 mph52%30.04 "HgN/A
8:20 PM64 °FPassing clouds.10 mph49%30.04 "HgN/A
7:50 PM66 °FPassing clouds.10 mph46%30.04 "HgN/A
7:20 PM66 °FPassing clouds.13 mph43%30.04 "HgN/A
6:50 PM68 °FPassing clouds.16 mph43%30.04 "HgN/A
6:20 PM68 °FPassing clouds.15 mph43%30.04 "HgN/A
5:50 PM68 °FPassing clouds.15 mph43%30.04 "HgN/A
5:20 PM68 °FPassing clouds.18 mph43%30.04 "HgN/A
4:50 PM70 °FPassing clouds.16 mph40%30.04 "HgN/A
4:20 PM70 °FPassing clouds.17 mph40%30.04 "HgN/A
3:50 PM68 °FPassing clouds.17 mph46%30.04 "HgN/A
3:20 PM68 °FPassing clouds.21 mph43%30.07 "HgN/A
2:50 PM68 °FPassing clouds.20 mph43%30.07 "HgN/A
2:20 PM68 °FPassing clouds.21 mph43%30.07 "HgN/A
1:50 PM68 °FPassing clouds.16 mph46%30.07 "HgN/A
1:20 PM66 °FPassing clouds.17 mph49%30.07 "HgN/A
12:50 PM66 °FPassing clouds.18 mph52%30.07 "HgN/A
12:20 PM64 °FPassing clouds.20 mph52%30.07 "HgN/A
11:50 AM64 °FPassing clouds.20 mph52%30.07 "HgN/A
11:20 AM64 °FPassing clouds.17 mph52%30.07 "HgN/A
10:50 AM63 °FPassing clouds.18 mph56%30.09 "HgN/A
10:20 AM63 °FPassing clouds.14 mph59%30.09 "HgN/A
9:50 AM61 °FPassing clouds.15 mph68%30.09 "HgN/A
9:20 AM59 °FPassing clouds.12 mph72%30.09 "HgN/A
8:50 AM59 °FPassing clouds.14 mph72%30.09 "HgN/A
8:20 AM59 °FPassing clouds.10 mph77%30.09 "HgN/A
7:50 AM57 °FPassing clouds.6 mph77%30.09 "HgN/A
7:20 AM52 °FPassing clouds.3 mph88%30.09 "HgN/A
6:50 AM52 °FPassing clouds.1 mph82%30.09 "HgN/A
6:20 AM52 °FPassing clouds.2 mph82%30.09 "HgN/A
5:50 AM55 °FPassing clouds.5 mph77%30.09 "HgN/A
5:20 AM54 °FPassing clouds.5 mph82%30.09 "HgN/A
4:50 AM55 °FPassing clouds.5 mph72%30.09 "HgN/A
4:20 AM54 °FPassing clouds.5 mph82%30.09 "HgN/A
3:50 AM55 °FPassing clouds.5 mph77%30.09 "HgN/A
2:50 AM57 °FPassing clouds.5 mph77%30.09 "HgN/A
2:20 AM55 °FPassing clouds.5 mph77%30.09 "HgN/A
Weather by CustomWeather, © 2014

See weather overviewHow to use our weather pages